Погода в Нефтегорске

Россия / Самарская область     52°47′49″N   51°09′49″E
темп.,
°C
ветер,
м/с
пор.,
м/с
влажн.,
%
обл.,
%
осадки,
мм/ч
давл.,
гПа
погр.,
м
8 августа, пн
пн801:00+21св225189 0.0 101815
04:00+19св336132 0.0 101833
07:00+21в365611 0.0 1019145
10:00+28всв343859 0.0 1019778
13:00+31ссв323068 0.0 10183198
16:00+29ссв3434100 0.0 10181340
19:00+26св354399 0.0 1018101
22:00+22св3661100 0.0 101883
9 августа, вт
вт901:00+21св2261100 0.0 101817
04:00+19ссв2273100 0.0 101816
07:00+21ссв2370100 0.0 1019113
10:00+26ссв2351100 0.0 1019581
13:00+29ссв2240100 0.0 10182006
16:00+30св4336100 0.0 10172003
19:00+26всв115098 0.0 101720
22:00+24ююв015399 0.0 101811
10 августа, ср
ср1001:00+21с116395 0.0 101811
04:00+20св226755 0.1 101811
07:00+22ссв12634 0.0 101890
10:00+27ссв22474 0.0 1018692
13:00+31ссв213561 0.0 10172603
16:00+28всв3342100 0.0 101795
19:00+27ссв224834 0.0 101746
22:00+23с35585 0.1 101766
11 августа, чт
чт1101:00+22юв2262100 0.0 101711
04:00+21сз11665 0.0 101711
07:00+22сз246397 0.0 1018116
10:00+27ссз4449100 0.0 1018611
13:00+29ссз5543100 0.0 10181513
16:00+29ссз774276 0.0 10181732
19:00+24с7945100 0.0 1019686
22:00+18с411565 0.0 1021279
12 августа, пт
пт1201:00+14с410740 0.0 1022235
04:00+12ссв38870 0.0 1023174
07:00+15ссв36705 0.0 1023228
10:00+21с454699 0.0 1023989
13:00+24с453377 0.0 10221723
16:00+26ссз45305 0.0 10212097
19:00+23ссз35405 0.0 1020125
22:00+18сз33510 0.0 102132